DW2427 Weather Reports


Display with metric or nautical units.
time (UTC)temp
F
wind
direction
speed
MPH
gust
MPH
rain 1hr
in
rain 24hr
in
rain mn
in
humidity
%
barometer
mb
20191206161505 63 198 0.0 1.0 0.00 0.00 0.00 48 1021.0
20191206161005 62 0 0.0 0.0 0.00 0.00 0.00 51 1021.1
20191206160505 62 0 0.0 0.0 0.00 0.00 0.00 52 1021.2
20191206160005 62 154 0.0 1.0 0.00 0.00 0.00 55 1021.2
20191206155504 61 173 0.0 1.0 0.00 0.00 0.00 54 1021.2
20191206155005 61 173 0.0 1.0 0.00 0.00 0.00 55 1021.1
20191206154505 60 184 0.0 1.0 0.00 0.00 0.00 60 1021.1
20191206154004 60 94 0.0 3.0 0.00 0.00 0.00 61 1021.0
20191206153505 59 83 0.0 3.0 0.00 0.00 0.00 60 1021.1
20191206153005 59 93 0.0 1.0 0.00 0.00 0.00 63 1021.2
20191206152505 58 112 0.0 1.0 0.00 0.00 0.00 62 1021.2
20191206152005 58 101 0.0 1.0 0.00 0.00 0.00 64 1021.3
20191206151505 58 101 0.0 1.0 0.00 0.00 0.00 65 1021.2
20191206151005 57 0 0.0 0.0 0.00 0.00 0.00 67 1021.2
20191206150505 56 0 0.0 0.0 0.00 0.00 0.00 68 1021.2
20191206150005 56 0 0.0 0.0 0.00 0.00 0.00 71 1021.1
20191206145505 55 154 0.0 1.0 0.00 0.00 0.00 70 1021.2
20191206145005 54 154 0.0 1.0 0.00 0.00 0.00 72 1021.4
20191206144505 54 134 0.0 1.0 0.00 0.00 0.00 72 1021.3
20191206144004 54 118 0.0 1.0 0.00 0.00 0.00 72 1021.0
20191206143504 53 117 0.0 1.0 0.00 0.00 0.00 72 1021.0
20191206143005 53 130 0.0 1.0 0.00 0.00 0.00 72 1021.0
20191206142505 53 0 0.0 0.0 0.00 0.00 0.00 72 1021.2
20191206142005 52 0 0.0 0.0 0.00 0.00 0.00 73 1021.0
20191206141505 52 0 0.0 0.0 0.00 0.00 0.00 73 1021.0
20191206141004 52 0 0.0 0.0 0.00 0.00 0.00 73 1021.0
20191206140504 51 0 0.0 0.0 0.00 0.00 0.00 75 1021.0
20191206140004 51 0 0.0 0.0 0.00 0.00 0.00 76 1021.0
20191206135504 50 0 0.0 0.0 0.00 0.00 0.00 76 1020.9
20191206135004 50 0 0.0 0.0 0.00 0.00 0.00 76 1020.9
20191206134504 50 0 0.0 0.0 0.00 0.00 0.00 77 1020.9
20191206134005 50 144 0.0 1.0 0.00 0.00 0.00 77 1020.9
20191206133504 49 144 0.0 1.0 0.00 0.00 0.00 78 1020.8
20191206133004 49 0 0.0 0.0 0.00 0.00 0.00 78 1021.0
20191206132505 49 0 0.0 0.0 0.00 0.00 0.00 78 1021.0
20191206132004 48 0 0.0 0.0 0.00 0.00 0.00 78 1020.8
20191206131505 48 0 0.0 0.0 0.00 0.00 0.00 78 1020.8
20191206131004 48 0 0.0 0.0 0.00 0.00 0.00 79 1020.8
20191206130505 48 0 0.0 0.0 0.00 0.00 0.00 79 1020.7
20191206130004 47 0 0.0 0.0 0.00 0.00 0.00 79 1020.6
20191206125505 47 0 0.0 0.0 0.00 0.00 0.00 79 1020.4
20191206125004 47 0 0.0 0.0 0.00 0.00 0.00 79 1020.4
20191206124504 47 0 0.0 0.0 0.00 0.00 0.00 80 1020.3
20191206124005 46 0 0.0 0.0 0.00 0.00 0.00 81 1020.1
20191206123504 46 0 0.0 0.0 0.00 0.00 0.00 81 1020.0
20191206123005 46 0 0.0 0.0 0.00 0.00 0.00 81 1020.1
20191206122504 46 0 0.0 0.0 0.00 0.00 0.00 81 1020.1
20191206122004 46 0 0.0 0.0 0.00 0.00 0.00 81 1020.1
20191206121504 46 0 0.0 0.0 0.00 0.00 0.00 81 1020.1
20191206121004 46 0 0.0 0.0 0.00 0.00 0.00 82 1020.1
20191206120504 45 0 0.0 0.0 0.00 0.00 0.00 83 1020.1
20191206120004 45 0 0.0 0.0 0.00 0.00 0.00 84 1020.1
20191206115504 45 0 0.0 0.0 0.00 0.00 0.00 84 1020.1
20191206115004 44 0 0.0 0.0 0.00 0.00 0.00 85 1020.1
20191206114504 44 0 0.0 0.0 0.00 0.00 0.00 85 1020.1
20191206114004 44 0 0.0 0.0 0.00 0.00 0.00 85 1020.0
20191206113503 44 0 0.0 0.0 0.00 0.00 0.00 85 1020.1
20191206113007 44 0 0.0 0.0 0.00 0.00 0.00 85 1019.9
20191206112504 44 0 0.0 0.0 0.00 0.00 0.00 85 1019.9
20191206112006 44 0 0.0 0.0 0.00 0.00 0.00 85 1019.9
20191206111504 44 0 0.0 0.0 0.00 0.00 0.00 85 1019.8
20191206111003 44 0 0.0 0.0 0.00 0.00 0.00 85 1019.7
20191206110504 44 0 0.0 0.0 0.00 0.00 0.00 85 1019.7
20191206110004 44 0 0.0 0.0 0.00 0.00 0.00 85 1019.6
20191206105505 44 0 0.0 0.0 0.00 0.00 0.00 85 1019.4
20191206105004 44 0 0.0 0.0 0.00 0.00 0.00 84 1019.5
20191206104504 44 0 0.0 0.0 0.00 0.00 0.00 85 1019.6
20191206104004 43 0 0.0 0.0 0.00 0.00 0.00 85 1019.6
20191206103504 43 0 0.0 0.0 0.00 0.00 0.00 85 1019.4
20191206103004 43 0 0.0 0.0 0.00 0.00 0.00 85 1019.4
20191206102504 43 0 0.0 0.0 0.00 0.00 0.00 85 1019.5
20191206102005 43 0 0.0 0.0 0.00 0.00 0.00 85 1019.6
20191206101504 43 0 0.0 0.0 0.00 0.00 0.00 85 1019.6
20191206101004 43 0 0.0 0.0 0.00 0.00 0.00 85 1019.6
20191206100504 43 0 0.0 0.0 0.00 0.00 0.00 85 1019.6
20191206100004 43 0 0.0 0.0 0.00 0.00 0.00 85 1019.6
20191206095503 43 0 0.0 0.0 0.00 0.00 0.00 85 1019.6
20191206095004 43 0 0.0 0.0 0.00 0.00 0.00 84 1019.4
20191206094504 43 0 0.0 0.0 0.00 0.00 0.00 84 1019.3
20191206094004 43 0 0.0 0.0 0.00 0.00 0.00 84 1019.5
20191206093503 43 0 0.0 0.0 0.00 0.00 0.00 84 1019.5
20191206093004 43 0 0.0 0.0 0.00 0.00 0.00 84 1019.7
20191206092504 43 0 0.0 0.0 0.00 0.00 0.00 83 1019.7
20191206092003 43 0 0.0 0.0 0.00 0.00 0.00 84 1019.6
20191206091511 43 0 0.0 0.0 0.00 0.00 0.00 84 1019.6
20191206091034 43 0 0.0 0.0 0.00 0.00 0.00 85 1019.5
20191206090534 43 0 0.0 0.0 0.00 0.00 0.00 85 1019.5
20191206090034 43 0 0.0 0.0 0.00 0.00 0.00 85 1019.5
20191206085534 43 0 0.0 0.0 0.00 0.00 0.00 85 1019.7
20191206085033 43 0 0.0 0.0 0.00 0.00 0.00 84 1019.6
20191206084534 43 0 0.0 0.0 0.00 0.00 0.00 84 1019.5
20191206084033 43 0 0.0 0.0 0.00 0.00 0.00 84 1019.5
20191206083534 44 0 0.0 0.0 0.00 0.00 0.00 84 1019.5
20191206083034 44 0 0.0 0.0 0.00 0.00 0.00 84 1019.6
20191206082534 44 0 0.0 0.0 0.00 0.00 0.00 84 1019.5
20191206082034 44 0 0.0 0.0 0.00 0.00 0.00 84 1019.6
20191206081534 44 0 0.0 0.0 0.00 0.00 0.00 84 1019.4
20191206081034 44 0 0.0 0.0 0.00 0.00 0.00 83 1019.5
20191206080534 44 0 0.0 0.0 0.00 0.00 0.00 83 1019.4
20191206080033 44 0 0.0 0.0 0.00 0.00 0.00 83 1019.4
20191206075534 44 0 0.0 0.0 0.00 0.00 0.00 84 1019.4
20191206075034 44 0 0.0 0.0 0.00 0.00 0.00 84 1019.5
20191206074534 44 0 0.0 0.0 0.00 0.00 0.00 83 1019.6
20191206074034 44 0 0.0 0.0 0.00 0.00 0.00 83 1019.7
20191206073533 44 0 0.0 0.0 0.00 0.00 0.00 83 1019.5
20191206073034 44 0 0.0 0.0 0.00 0.00 0.00 83 1019.6
20191206072533 44 0 0.0 0.0 0.00 0.00 0.00 83 1019.7
20191206072033 44 0 0.0 0.0 0.00 0.00 0.00 83 1019.7
20191206071534 44 0 0.0 0.0 0.00 0.00 0.00 83 1019.7
20191206071033 44 0 0.0 0.0 0.00 0.00 0.00 83 1019.6
20191206070534 44 0 0.0 0.0 0.00 0.00 0.00 83 1019.7
20191206070033 44 0 0.0 0.0 0.00 0.00 0.00 82 1019.7
20191206065534 44 0 0.0 0.0 0.00 0.00 0.00 82 1019.7
20191206065033 44 0 0.0 0.0 0.00 0.00 0.00 82 1019.6
20191206064534 44 0 0.0 0.0 0.00 0.00 0.00 81 1019.7
20191206064033 44 0 0.0 0.0 0.00 0.00 0.00 81 1019.7
20191206063533 44 0 0.0 0.0 0.00 0.00 0.00 81 1019.6
20191206063033 44 0 0.0 0.0 0.00 0.00 0.00 81 1019.7
20191206062533 44 0 0.0 0.0 0.00 0.00 0.00 82 1019.7
20191206062034 44 0 0.0 0.0 0.00 0.00 0.00 81 1019.8
20191206061533 44 0 0.0 0.0 0.00 0.00 0.00 80 1019.6
20191206061033 45 0 0.0 0.0 0.00 0.00 0.00 79 1019.7
20191206060533 45 0 0.0 0.0 0.00 0.00 0.00 79 1019.7
20191206060033 45 0 0.0 0.0 0.00 0.00 0.00 79 1019.8
20191206055533 45 0 0.0 0.0 0.00 0.00 0.00 79 1019.8
20191206055033 45 0 0.0 0.0 0.00 0.00 0.00 78 1019.9
20191206054533 45 0 0.0 0.0 0.00 0.00 0.00 78 1019.8
20191206054034 45 0 0.0 0.0 0.00 0.00 0.00 77 1019.9
20191206053533 46 0 0.0 0.0 0.00 0.00 0.00 77 1019.9
20191206053033 46 0 0.0 0.0 0.00 0.00 0.00 77 1019.9
20191206052533 46 0 0.0 0.0 0.00 0.00 0.00 77 1020.0
20191206052033 46 0 0.0 0.0 0.00 0.00 0.00 77 1019.9
20191206051533 46 0 0.0 0.0 0.00 0.00 0.00 78 1019.9
20191206051033 46 0 0.0 0.0 0.00 0.00 0.00 78 1019.8
20191206050533 47 0 0.0 0.0 0.00 0.00 0.00 77 1019.8
20191206050034 47 0 0.0 0.0 0.00 0.00 0.00 77 1019.7
20191206045533 47 0 0.0 0.0 0.00 0.00 0.00 77 1019.8
20191206045032 47 0 0.0 0.0 0.00 0.00 0.00 77 1019.8
20191206044533 47 0 0.0 0.0 0.00 0.00 0.00 77 1019.8
20191206044032 47 0 0.0 0.0 0.00 0.00 0.00 77 1019.8
20191206043533 47 0 0.0 0.0 0.00 0.00 0.00 77 1019.9
20191206043032 47 0 0.0 0.0 0.00 0.00 0.00 77 1019.9
20191206042533 47 0 0.0 0.0 0.00 0.00 0.00 77 1019.9
20191206042033 47 0 0.0 0.0 0.00 0.00 0.00 76 1019.9
20191206041533 48 0 0.0 0.0 0.00 0.00 0.00 76 1019.9
20191206041033 48 0 0.0 0.0 0.00 0.00 0.00 76 1019.8
20191206040533 48 0 0.0 0.0 0.00 0.00 0.00 76 1019.9
20191206040033 48 0 0.0 0.0 0.00 0.00 0.00 76 1019.9
20191206035533 48 0 0.0 0.0 0.00 0.00 0.00 76 1019.8
20191206035033 48 0 0.0 0.0 0.00 0.00 0.00 75 1019.8
20191206034532 48 0 0.0 0.0 0.00 0.00 0.00 76 1019.8
20191206034033 48 0 0.0 0.0 0.00 0.00 0.00 76 1019.8
20191206033534 48 0 0.0 0.0 0.00 0.00 0.00 75 1019.9
20191206033033 48 0 0.0 0.0 0.00 0.00 0.00 75 1019.8
20191206032533 48 0 0.0 0.0 0.00 0.00 0.00 75 1019.7
20191206032032 48 0 0.0 0.0 0.00 0.00 0.00 74 1019.7
20191206031533 48 0 0.0 0.0 0.00 0.00 0.00 74 1019.7
20191206031032 48 0 0.0 0.0 0.00 0.00 0.00 73 1019.7
20191206030533 48 0 0.0 0.0 0.00 0.00 0.00 73 1019.5
20191206030032 48 0 0.0 0.0 0.00 0.00 0.00 73 1019.7
20191206025533 49 0 0.0 0.0 0.00 0.00 0.00 73 1019.7
20191206025032 49 0 0.0 0.0 0.00 0.00 0.00 73 1019.8
20191206024533 49 0 0.0 0.0 0.00 0.00 0.00 73 1019.8
20191206024032 49 0 0.0 0.0 0.00 0.00 0.00 73 1019.8
20191206023533 49 0 0.0 0.0 0.00 0.00 0.00 72 1019.8
20191206023034 49 0 0.0 0.0 0.00 0.00 0.00 72 1019.6
20191206022533 50 0 0.0 0.0 0.00 0.00 0.00 71 1019.7
20191206022032 50 0 0.0 0.0 0.00 0.00 0.00 71 1019.6
20191206021533 50 0 0.0 0.0 0.00 0.00 0.00 71 1019.6
20191206021033 50 0 0.0 0.0 0.00 0.00 0.00 70 1019.7
20191206020533 50 0 0.0 0.0 0.00 0.00 0.00 70 1019.8
20191206020032 51 0 0.0 0.0 0.00 0.00 0.00 70 1019.8
20191206015533 51 0 0.0 0.0 0.00 0.00 0.00 70 1019.5
20191206015032 51 0 0.0 0.0 0.00 0.00 0.00 69 1019.5
20191206014533 51 0 0.0 0.0 0.00 0.00 0.00 69 1019.5
20191206014032 51 0 0.0 0.0 0.00 0.00 0.00 69 1019.5
20191206013533 51 0 0.0 0.0 0.00 0.00 0.00 68 1019.5
20191206013032 51 0 0.0 0.0 0.00 0.00 0.00 68 1019.5
20191206012533 52 0 0.0 0.0 0.00 0.00 0.00 68 1019.5
20191206012032 52 0 0.0 0.0 0.00 0.00 0.00 68 1019.3
20191206011533 52 0 0.0 0.0 0.00 0.00 0.00 67 1019.2
20191206011032 52 0 0.0 0.0 0.00 0.00 0.00 67 1019.2
20191206010533 52 0 0.0 0.0 0.00 0.00 0.00 67 1019.2
20191206010032 52 0 0.0 0.0 0.00 0.00 0.00 66 1019.2
20191206005533 53 0 0.0 0.0 0.00 0.00 0.00 66 1019.1
20191206005032 53 0 0.0 0.0 0.00 0.00 0.00 66 1019.1
20191206004533 53 0 0.0 0.0 0.00 0.00 0.00 66 1019.2
20191206004032 53 0 0.0 0.0 0.00 0.00 0.00 65 1019.2
20191206003532 54 0 0.0 0.0 0.00 0.00 0.00 65 1019.0
20191206003032 54 0 0.0 0.0 0.00 0.00 0.00 64 1018.9
20191206002532 54 0 0.0 0.0 0.00 0.00 0.00 64 1018.9
20191206002032 54 0 0.0 0.0 0.00 0.00 0.00 63 1018.8
20191206001532 54 0 0.0 0.0 0.00 0.00 0.00 62 1018.8
20191206001032 55 0 0.0 0.0 0.00 0.00 0.00 61 1018.8
20191206000533 55 0 0.0 0.0 0.00 0.00 0.00 60 1018.5
20191206000032 55 0 0.0 0.0 0.00 0.00 0.00 59 1018.6
20191205235531 55 0 0.0 0.0 0.00 0.00 0.00 59 1018.5
20191205235032 56 0 0.0 0.0 0.00 0.00 0.00 58 1018.4
20191205234532 56 0 0.0 0.0 0.00 0.00 0.00 58 1018.4
20191205234032 57 0 0.0 0.0 0.00 0.00 0.00 57 1018.5
20191205233532 57 0 0.0 0.0 0.00 0.00 0.00 53 1018.4
20191205233031 58 0 0.0 0.0 0.00 0.00 0.00 53 1018.5
20191205232532 58 0 0.0 0.0 0.00 0.00 0.00 52 1018.5
20191205232032 58 0 0.0 0.0 0.00 0.00 0.00 52 1018.5
20191205231532 59 0 0.0 0.0 0.00 0.00 0.00 51 1018.5
20191205231032 59 0 0.0 0.0 0.00 0.00 0.00 49 1018.4
20191205230532 59 0 0.0 0.0 0.00 0.00 0.00 49 1018.3
20191205230032 60 0 0.0 0.0 0.00 0.00 0.00 48 1018.3
20191205225532 60 0 0.0 0.0 0.00 0.00 0.00 47 1018.2
20191205225032 61 0 0.0 0.0 0.00 0.00 0.00 48 1018.1
20191205224531 61 0 0.0 0.0 0.00 0.00 0.00 46 1018.1
20191205224032 62 0 0.0 0.0 0.00 0.00 0.00 45 1018.1
20191205223531 63 0 0.0 0.0 0.00 0.00 0.00 43 1018.1
20191205223032 63 0 0.0 0.0 0.00 0.00 0.00 41 1018.0
20191205222532 64 0 0.0 0.0 0.00 0.00 0.00 39 1018.0
20191205222031 65 0 0.0 0.0 0.00 0.00 0.00 36 1018.0
20191205221532 66 0 0.0 0.0 0.00 0.00 0.00 34 1017.9
20191205221031 67 0 0.0 0.0 0.00 0.00 0.00 33 1017.8
20191205220532 68 0 0.0 0.0 0.00 0.00 0.00 31 1017.8
20191205220031 69 0 0.0 0.0 0.00 0.00 0.00 31 1017.6
20191205215532 69 0 0.0 0.0 0.00 0.00 0.00 28 1017.6
20191205215031 69 0 0.0 0.0 0.00 0.00 0.00 27 1017.5
20191205214532 70 0 0.0 0.0 0.00 0.00 0.00 26 1017.5
20191205214031 69 0 0.0 0.0 0.00 0.00 0.00 27 1017.5
20191205213532 69 0 0.0 0.0 0.00 0.00 0.00 30 1017.4
20191205213031 70 0 0.0 0.0 0.00 0.00 0.00 26 1017.4
20191205212532 70 0 0.0 0.0 0.00 0.00 0.00 25 1017.4
20191205212031 70 0 0.0 0.0 0.00 0.00 0.00 25 1017.4
20191205211532 70 0 0.0 0.0 0.00 0.00 0.00 26 1017.5
20191205211031 70 0 0.0 0.0 0.00 0.00 0.00 26 1017.5
20191205210532 70 0 0.0 0.0 0.00 0.00 0.00 27 1017.5
20191205210031 69 0 0.0 0.0 0.00 0.00 0.00 27 1017.5
20191205205532 69 0 0.0 0.0 0.00 0.00 0.00 27 1017.4
20191205205031 69 0 0.0 0.0 0.00 0.00 0.00 26 1017.4
20191205204532 70 0 0.0 0.0 0.00 0.00 0.00 27 1017.3
20191205204031 70 0 0.0 0.0 0.00 0.00 0.00 26 1017.3
20191205203532 70 0 0.0 0.0 0.00 0.00 0.00 27 1017.3
20191205203032 70 0 0.0 0.0 0.00 0.00 0.00 27 1017.4
20191205202532 70 0 0.0 0.0 0.00 0.00 0.00 27 1017.4
20191205202031 70 0 0.0 0.0 0.00 0.00 0.00 27 1017.4
20191205201531 70 0 0.0 0.0 0.00 0.00 0.00 27 1017.4
20191205201031 69 0 0.0 0.0 0.00 0.00 0.00 27 1017.4
20191205200532 69 0 0.0 0.0 0.00 0.00 0.00 27 1017.2
20191205200031 68 0 0.0 0.0 0.00 0.00 0.00 28 1017.2
20191205195531 68 0 0.0 0.0 0.00 0.00 0.00 27 1017.2
20191205195031 68 0 0.0 0.0 0.00 0.00 0.00 25 1017.2
20191205194531 68 0 0.0 0.0 0.00 0.00 0.00 24 1017.1
20191205194031 69 0 0.0 0.0 0.00 0.00 0.00 24 1017.1
20191205193531 69 0 0.0 0.0 0.00 0.00 0.00 25 1017.1
20191205193031 69 0 0.0 0.0 0.00 0.00 0.00 27 1017.1
20191205192531 69 0 0.0 0.0 0.00 0.00 0.00 27 1017.2
20191205192031 68 0 0.0 0.0 0.00 0.00 0.00 26 1017.2
20191205191531 68 0 0.0 0.0 0.00 0.00 0.00 28 1017.3
20191205191031 68 0 0.0 0.0 0.00 0.00 0.00 27 1017.4
20191205190531 69 305 0.0 1.0 0.00 0.00 0.00 27 1017.4
20191205190031 69 169 0.0 4.0 0.00 0.00 0.00 29 1017.5
20191205185532 68 164 0.0 4.0 0.00 0.00 0.00 29 1017.4
20191205185031 69 0 0.0 0.0 0.00 0.00 0.00 29 1017.4
20191205184531 69 0 0.0 0.0 0.00 0.00 0.00 30 1017.5
20191205184031 69 329 0.0 1.0 0.00 0.00 0.00 28 1017.7
20191205183531 68 332 0.0 1.0 0.00 0.00 0.00 28 1017.6
20191205183031 68 40 0.0 1.0 0.00 0.00 0.00 29 1017.6
20191205182531 68 55 0.0 1.0 0.00 0.00 0.00 29 1017.8
20191205182031 68 11 0.0 1.0 0.00 0.00 0.00 29 1017.8
20191205181530 68 71 0.0 5.0 0.00 0.00 0.00 28 1017.9
20191205181031 68 73 0.0 5.0 0.00 0.00 0.00 30 1017.9
20191205180530 68 0 0.0 0.0 0.00 0.00 0.00 30 1018.0
20191205180031 68 0 0.0 0.0 0.00 0.00 0.00 33 1018.0
20191205175531 68 0 0.0 0.0 0.00 0.00 0.00 32 1018.1
20191205175030 67 0 0.0 0.0 0.00 0.00 0.00 31 1018.0
20191205174531 67 0 0.0 0.0 0.00 0.00 0.00 32 1018.2
20191205174030 67 0 0.0 0.0 0.00 0.00 0.00 31 1018.1
20191205173531 67 0 0.0 0.0 0.00 0.00 0.00 32 1018.4
20191205173031 67 0 0.0 0.0 0.00 0.00 0.00 31 1018.5
20191205172531 67 0 0.0 0.0 0.00 0.00 0.00 31 1018.6
20191205172030 66 302 0.0 1.0 0.00 0.00 0.00 33 1018.7
20191205171530 66 312 0.0 1.0 0.00 0.00 0.00 32 1018.7
20191205171031 66 323 0.0 1.0 0.00 0.00 0.00 32 1018.7
20191205170531 66 0 0.0 0.0 0.00 0.00 0.00 33 1018.7
20191205170030 66 0 0.0 0.0 0.00 0.00 0.00 35 1018.8
20191205165530 65 0 0.0 0.0 0.00 0.00 0.00 37 1018.9
20191205165030 65 0 0.0 0.0 0.00 0.00 0.00 38 1018.9
20191205164531 64 0 0.0 0.0 0.00 0.00 0.00 39 1019.1
20191205164030 64 0 0.0 0.0 0.00 0.00 0.00 40 1019.2
20191205163531 64 0 0.0 0.0 0.00 0.00 0.00 39 1019.3
20191205163031 63 0 0.0 0.0 0.00 0.00 0.00 40 1019.3
20191205162531 63 0 0.0 0.0 0.00 0.00 0.00 39 1019.3
20191205162030 62 0 0.0 0.0 0.00 0.00 0.00 39 1019.4